Time,TemperatureF,DewpointF,PressureIn,WindDirection,WindDirectionDegrees,WindSpeedMPH,WindSpeedGustMPH,Humidity,HourlyPrecipIn,Conditions,Clouds,dailyrainin,SoftwareType,DateUTC
2013-12-15 00:01:00,31.3,26.0,30.31,West,275,0.0,0.0,79,0.00,,,0.00,weatherlink.com 1.10,2013-12-15 06:01:00,
2013-12-15 00:16:00,30.9,25.0,30.31,West,275,0.0,0.0,80,0.00,,,0.00,weatherlink.com 1.10,2013-12-15 06:16:00,
2013-12-15 00:31:00,31.2,26.0,30.31,West,275,0.0,0.0,80,0.00,,,0.00,weatherlink.com 1.10,2013-12-15 06:31:00,
2013-12-15 00:46:00,30.7,25.0,30.31,West,275,0.0,0.0,80,0.00,,,0.00,weatherlink.com 1.10,2013-12-15 06:46:00,
2013-12-15 01:01:00,30.4,25.0,30.31,West,275,0.0,0.0,81,0.00,,,0.00,weatherlink.com 1.10,2013-12-15 07:01:00,
2013-12-15 01:16:00,30.3,25.0,30.31,West,275,0.0,0.0,81,0.00,,,0.00,weatherlink.com 1.10,2013-12-15 07:16:00,
2013-12-15 01:31:00,30.1,25.0,30.31,West,275,0.0,0.0,82,0.00,,,0.00,weatherlink.com 1.10,2013-12-15 07:31:00,
2013-12-15 01:46:00,30.1,25.0,30.31,West,275,0.0,0.0,82,0.00,,,0.00,weatherlink.com 1.10,2013-12-15 07:46:00,
2013-12-15 02:01:00,30.1,25.0,30.31,West,275,0.0,0.0,82,0.00,,,0.00,weatherlink.com 1.10,2013-12-15 08:01:00,
2013-12-15 02:16:00,30.1,25.0,30.32,West,275,0.0,0.0,82,0.00,,,0.00,weatherlink.com 1.10,2013-12-15 08:16:00,
2013-12-15 02:31:00,29.8,25.0,30.32,West,259,0.0,0.0,82,0.00,,,0.00,weatherlink.com 1.10,2013-12-15 08:31:00,
2013-12-15 02:46:00,29.0,25.0,30.31,West,259,0.0,0.0,83,0.00,,,0.00,weatherlink.com 1.10,2013-12-15 08:46:00,
2013-12-15 03:01:00,28.9,25.0,30.31,West,259,0.0,0.0,84,0.00,,,0.00,weatherlink.com 1.10,2013-12-15 09:01:00,
2013-12-15 03:16:00,29.0,25.0,30.31,West,259,0.0,0.0,84,0.00,,,0.00,weatherlink.com 1.10,2013-12-15 09:16:00,
2013-12-15 03:31:00,29.4,26.0,30.31,West,259,0.0,0.0,85,0.00,,,0.00,weatherlink.com 1.10,2013-12-15 09:31:00,
2013-12-15 03:46:00,29.4,26.0,30.31,West,259,0.0,0.0,85,0.00,,,0.00,weatherlink.com 1.10,2013-12-15 09:46:00,
2013-12-15 04:01:00,29.4,26.0,30.31,West,259,0.0,0.0,85,0.00,,,0.00,weatherlink.com 1.10,2013-12-15 10:01:00,
2013-12-15 04:16:00,29.5,26.0,30.31,West,259,0.0,0.0,85,0.00,,,0.00,weatherlink.com 1.10,2013-12-15 10:16:00,
2013-12-15 04:31:00,29.6,26.0,30.31,West,259,0.0,0.0,85,0.00,,,0.00,weatherlink.com 1.10,2013-12-15 10:31:00,
2013-12-15 04:46:00,29.8,26.0,30.31,West,259,0.0,0.0,85,0.00,,,0.00,weatherlink.com 1.10,2013-12-15 10:46:00,
2013-12-15 05:01:00,29.7,25.0,30.30,West,259,0.0,0.0,84,0.00,,,0.00,weatherlink.com 1.10,2013-12-15 11:01:00,
2013-12-15 05:16:00,29.8,26.0,30.30,West,259,0.0,0.0,84,0.00,,,0.00,weatherlink.com 1.10,2013-12-15 11:16:00,
2013-12-15 05:31:00,29.7,26.0,30.30,West,259,0.0,0.0,85,0.00,,,0.00,weatherlink.com 1.10,2013-12-15 11:31:00,
2013-12-15 05:46:00,29.9,26.0,30.30,West,259,0.0,0.0,85,0.00,,,0.00,weatherlink.com 1.10,2013-12-15 11:46:00,
2013-12-15 06:01:00,29.8,26.0,30.30,West,259,0.0,0.0,84,0.00,,,0.00,weatherlink.com 1.10,2013-12-15 12:01:00,
2013-12-15 06:16:00,29.9,26.0,30.30,West,259,0.0,0.0,84,0.00,,,0.00,weatherlink.com 1.10,2013-12-15 12:16:00,
2013-12-15 06:31:00,29.6,25.0,30.30,West,259,0.0,0.0,84,0.00,,,0.00,weatherlink.com 1.10,2013-12-15 12:31:00,
2013-12-15 06:46:00,29.0,25.0,30.31,West,259,0.0,0.0,84,0.00,,,0.00,weatherlink.com 1.10,2013-12-15 12:46:00,
2013-12-15 07:01:00,28.0,24.0,30.31,West,259,0.0,0.0,85,0.00,,,0.00,weatherlink.com 1.10,2013-12-15 13:01:00,
2013-12-15 07:16:00,28.1,25.0,30.31,West,259,0.0,0.0,86,0.00,,,0.00,weatherlink.com 1.10,2013-12-15 13:16:00,
2013-12-15 07:31:00,27.3,23.0,30.32,West,259,0.0,0.0,85,0.00,,,0.00,weatherlink.com 1.10,2013-12-15 13:31:00,
2013-12-15 07:46:00,26.7,23.0,30.32,West,259,0.0,0.0,86,0.00,,,0.00,weatherlink.com 1.10,2013-12-15 13:46:00,
2013-12-15 08:01:00,27.8,24.0,30.32,West,259,0.0,0.0,87,0.00,,,0.00,weatherlink.com 1.10,2013-12-15 14:01:00,
2013-12-15 08:16:00,29.3,26.0,30.32,West,259,0.0,0.0,87,0.00,,,0.00,weatherlink.com 1.10,2013-12-15 14:16:00,
2013-12-15 08:31:00,31.0,28.0,30.33,West,259,0.0,0.0,87,0.00,,,0.00,weatherlink.com 1.10,2013-12-15 14:31:00,
2013-12-15 08:46:00,32.9,29.0,30.33,West,259,0.0,0.0,84,0.00,,,0.00,weatherlink.com 1.10,2013-12-15 14:46:00,
2013-12-15 09:01:00,34.3,29.0,30.33,West,269,0.0,0.0,82,0.00,,,0.00,weatherlink.com 1.10,2013-12-15 15:01:00,
2013-12-15 09:17:00,35.6,30.0,30.34,WSW,255,0.0,0.0,80,0.00,,,0.00,weatherlink.com 1.10,2013-12-15 15:17:00,
2013-12-15 09:32:00,36.9,31.0,30.34,West,263,0.0,0.0,78,0.00,,,0.00,weatherlink.com 1.10,2013-12-15 15:32:00,
2013-12-15 09:47:00,38.0,31.0,30.34,West,263,0.0,0.0,76,0.00,,,0.00,weatherlink.com 1.10,2013-12-15 15:47:00,
2013-12-15 10:02:00,39.4,32.0,30.34,West,271,0.0,0.0,75,0.00,,,0.00,weatherlink.com 1.10,2013-12-15 16:02:00,
2013-12-15 10:17:00,41.0,33.0,30.33,WSW,257,0.0,0.0,73,0.00,,,0.00,weatherlink.com 1.10,2013-12-15 16:17:00,
2013-12-15 10:32:00,42.9,34.0,30.32,SW,228,0.0,0.0,70,0.00,,,0.00,weatherlink.com 1.10,2013-12-15 16:32:00,
2013-12-15 10:47:00,45.5,34.0,30.32,West,261,0.0,0.0,64,0.00,,,0.00,weatherlink.com 1.10,2013-12-15 16:47:00,
2013-12-15 11:02:00,46.8,34.0,30.32,WSW,240,0.0,0.0,61,0.00,,,0.00,weatherlink.com 1.10,2013-12-15 17:02:00,
2013-12-15 11:17:00,47.9,34.0,30.31,SSW,202,0.0,0.0,60,0.00,,,0.00,weatherlink.com 1.10,2013-12-15 17:17:00,
2013-12-15 11:32:00,49.1,33.0,30.31,West,273,0.0,0.0,55,0.00,,,0.00,weatherlink.com 1.10,2013-12-15 17:32:00,
2013-12-15 11:47:00,50.3,34.0,30.30,WSW,246,0.0,0.0,54,0.00,,,0.00,weatherlink.com 1.10,2013-12-15 17:47:00,
2013-12-15 12:02:00,51.4,33.0,30.30,SW,233,0.0,0.0,50,0.00,,,0.00,weatherlink.com 1.10,2013-12-15 18:02:00,
2013-12-15 12:17:00,52.7,33.0,30.29,WSW,250,0.0,0.0,47,0.00,,,0.00,weatherlink.com 1.10,2013-12-15 18:17:00,
2013-12-15 12:32:00,53.5,32.0,30.29,WSW,250,0.0,0.0,45,0.00,,,0.00,weatherlink.com 1.10,2013-12-15 18:32:00,
2013-12-15 12:47:00,54.2,32.0,30.28,West,281,0.0,0.0,43,0.00,,,0.00,weatherlink.com 1.10,2013-12-15 18:47:00,
2013-12-15 13:02:00,55.1,33.0,30.27,WSW,247,0.0,0.0,43,0.00,,,0.00,weatherlink.com 1.10,2013-12-15 19:02:00,
2013-12-15 13:18:00,55.1,33.0,30.27,West,272,0.0,0.0,43,0.00,,,0.00,weatherlink.com 1.10,2013-12-15 19:18:00,
2013-12-15 13:33:00,56.0,33.0,30.27,West,273,0.0,0.0,42,0.00,,,0.00,weatherlink.com 1.10,2013-12-15 19:33:00,
2013-12-15 13:48:00,56.6,32.0,30.26,WSW,254,0.0,1.0,40,0.00,,,0.00,weatherlink.com 1.10,2013-12-15 19:48:00,
2013-12-15 14:03:00,57.0,33.0,30.25,WSW,254,0.0,2.0,41,0.00,,,0.00,weatherlink.com 1.10,2013-12-15 20:03:00,
2013-12-15 14:18:00,57.4,32.0,30.24,West,272,0.0,0.0,38,0.00,,,0.00,weatherlink.com 1.10,2013-12-15 20:18:00,
2013-12-15 14:33:00,58.3,33.0,30.23,SW,232,0.0,0.0,39,0.00,,,0.00,weatherlink.com 1.10,2013-12-15 20:33:00,
2013-12-15 14:48:00,58.1,30.0,30.22,WSW,252,0.0,0.0,35,0.00,,,0.00,weatherlink.com 1.10,2013-12-15 20:48:00,
2013-12-15 15:03:00,58.7,32.0,30.21,SW,219,0.0,0.0,37,0.00,,,0.00,weatherlink.com 1.10,2013-12-15 21:03:00,
2013-12-15 15:18:00,58.6,32.0,30.21,SW,217,0.0,0.0,36,0.00,,,0.00,weatherlink.com 1.10,2013-12-15 21:18:00,
2013-12-15 15:33:00,58.8,32.0,30.21,WSW,244,0.0,0.0,36,0.00,,,0.00,weatherlink.com 1.10,2013-12-15 21:33:00,
2013-12-15 15:48:00,58.6,32.0,30.21,WSW,242,0.0,0.0,36,0.00,,,0.00,weatherlink.com 1.10,2013-12-15 21:48:00,
2013-12-15 16:03:00,58.7,32.0,30.21,WSW,240,0.0,0.0,36,0.00,,,0.00,weatherlink.com 1.10,2013-12-15 22:03:00,
2013-12-15 16:18:00,58.8,31.0,30.21,WSW,244,0.0,0.0,35,0.00,,,0.00,weatherlink.com 1.10,2013-12-15 22:18:00,
2013-12-15 16:33:00,58.7,32.0,30.20,SW,215,0.0,0.0,36,0.00,,,0.00,weatherlink.com 1.10,2013-12-15 22:33:00,
2013-12-15 16:48:00,58.2,32.0,30.21,SW,232,0.0,0.0,38,0.00,,,0.00,weatherlink.com 1.10,2013-12-15 22:48:00,
2013-12-15 17:03:00,57.4,32.0,30.21,SW,232,0.0,0.0,39,0.00,,,0.00,weatherlink.com 1.10,2013-12-15 23:03:00,
2013-12-15 17:18:00,55.8,32.0,30.21,SW,229,0.0,0.0,40,0.00,,,0.00,weatherlink.com 1.10,2013-12-15 23:18:00,
2013-12-15 17:33:00,55.0,31.0,30.21,SW,229,0.0,0.0,41,0.00,,,0.00,weatherlink.com 1.10,2013-12-15 23:33:00,
2013-12-15 17:48:00,54.7,31.0,30.21,SW,229,0.0,0.0,41,0.00,,,0.00,weatherlink.com 1.10,2013-12-15 23:48:00,
2013-12-15 18:03:00,54.6,31.0,30.21,SW,229,0.0,0.0,40,0.00,,,0.00,weatherlink.com 1.10,2013-12-16 00:03:00,
2013-12-15 18:18:00,54.6,31.0,30.21,SW,227,0.0,0.0,40,0.00,,,0.00,weatherlink.com 1.10,2013-12-16 00:18:00,
2013-12-15 18:33:00,54.0,30.0,30.20,South,170,0.0,0.0,40,0.00,,,0.00,weatherlink.com 1.10,2013-12-16 00:33:00,
2013-12-15 18:48:00,52.5,30.0,30.20,South,184,0.0,0.0,42,0.00,,,0.00,weatherlink.com 1.10,2013-12-16 00:48:00,
2013-12-15 19:03:00,50.9,30.0,30.20,South,169,0.0,0.0,45,0.00,,,0.00,weatherlink.com 1.10,2013-12-16 01:03:00,
2013-12-15 19:18:00,49.0,30.0,30.20,SSE,161,0.0,0.0,48,0.00,,,0.00,weatherlink.com 1.10,2013-12-16 01:18:00,
2013-12-15 19:33:00,48.0,30.0,30.20,SSE,160,0.0,0.0,51,0.00,,,0.00,weatherlink.com 1.10,2013-12-16 01:33:00,
2013-12-15 19:48:00,47.5,30.0,30.20,South,188,0.0,0.0,52,0.00,,,0.00,weatherlink.com 1.10,2013-12-16 01:48:00,
2013-12-15 20:03:00,48.1,31.0,30.21,SSW,197,0.0,0.0,53,0.00,,,0.00,weatherlink.com 1.10,2013-12-16 02:03:00,
2013-12-15 20:18:00,48.3,32.0,30.21,South,186,0.0,0.0,54,0.00,,,0.00,weatherlink.com 1.10,2013-12-16 02:18:00,
2013-12-15 20:33:00,47.6,32.0,30.21,South,186,0.0,0.0,55,0.00,,,0.00,weatherlink.com 1.10,2013-12-16 02:33:00,
2013-12-15 20:48:00,45.9,31.0,30.21,SSE,159,0.0,0.0,57,0.00,,,0.00,weatherlink.com 1.10,2013-12-16 02:48:00,
2013-12-15 21:03:00,44.9,31.0,30.21,SSE,159,0.0,0.0,59,0.00,,,0.00,weatherlink.com 1.10,2013-12-16 03:03:00,
2013-12-15 21:18:00,44.1,31.0,30.21,SSE,163,0.0,0.0,61,0.00,,,0.00,weatherlink.com 1.10,2013-12-16 03:18:00,
2013-12-15 21:33:00,43.6,32.0,30.21,South,175,0.0,0.0,63,0.00,,,0.00,weatherlink.com 1.10,2013-12-16 03:33:00,
2013-12-15 21:48:00,43.7,31.0,30.21,South,169,0.0,0.0,62,0.00,,,0.00,weatherlink.com 1.10,2013-12-16 03:48:00,
2013-12-15 22:03:00,43.2,31.0,30.21,SSE,167,0.0,0.0,63,0.00,,,0.00,weatherlink.com 1.10,2013-12-16 04:03:00,
2013-12-15 22:18:00,42.3,31.0,30.21,South,171,0.0,0.0,65,0.00,,,0.00,weatherlink.com 1.10,2013-12-16 04:18:00,
2013-12-15 22:33:00,42.0,31.0,30.20,SSE,167,0.0,0.0,66,0.00,,,0.00,weatherlink.com 1.10,2013-12-16 04:33:00,
2013-12-15 22:48:00,41.7,31.0,30.20,SSE,160,0.0,0.0,66,0.00,,,0.00,weatherlink.com 1.10,2013-12-16 04:48:00,
2013-12-15 23:03:00,41.5,31.0,30.19,SSE,167,0.0,0.0,66,0.00,,,0.00,weatherlink.com 1.10,2013-12-16 05:03:00,
2013-12-15 23:18:00,41.5,31.0,30.19,South,186,0.0,0.0,67,0.00,,,0.00,weatherlink.com 1.10,2013-12-16 05:18:00,
2013-12-15 23:33:00,43.0,31.0,30.20,SSW,193,0.0,0.0,64,0.00,,,0.00,weatherlink.com 1.10,2013-12-16 05:33:00,
2013-12-15 23:48:00,44.8,31.0,30.20,SSW,198,0.0,0.0,60,0.00,,,0.00,weatherlink.com 1.10,2013-12-16 05:48:00,